Tracking 28126 objects as of 2-Oct-2023
HD Live streaming from Space Station
objects crossing your sky now

STARLINK-30379

Track STARLINK-30379 now!
10-day predictions
STARLINK-30379 is classified as:


NORAD ID: 57811
Int'l Code: 2023-138D
Perigee: 422.1 km
Apogee: 424.4 km
Inclination: 43.0 °
Period: 92.9 minutes
Semi major axis: 6794 km
RCS: Unknown
Launch date: September 9, 2023
Source: United States (US)
Launch site: AIR FORCE EASTERN TEST RANGE (AFETR)
Your satellite tracking list
Your tracking list is empty




NASA's NSSDC Master Catalog

Two Line Element Set (TLE):
1 57811U 23138D   23274.83334491 -.01471069  00000-0 -28004-1 0  9997
2 57811  43.0006  35.0029 0001679 290.7146 126.9998 15.50202659  4809
Source of the keplerian elements: AFSPC